2023/05/12 00:00:00,14.1, 8.8
2023/05/12 00:10:00,12.2, 8.4
2023/05/12 00:20:00,10.9, 8.2
2023/05/12 00:30:00,11.2, 8.1
2023/05/12 00:40:00,12.8, 8.1
2023/05/12 00:50:00,11.0, 8.1
2023/05/12 01:00:00, 8.6, 7.8
2023/05/12 01:10:00, 8.8, 7.4
2023/05/12 01:20:00, 7.5, 7.6
2023/05/12 01:30:00, 7.4, 7.3
2023/05/12 01:40:00, 9.3, 7.3
2023/05/12 01:50:00, 9.8, 7.1
2023/05/12 02:00:00, 8.3, 7.2
2023/05/12 02:10:00, 7.1, 7.1
2023/05/12 02:20:00, 5.7, 6.6
2023/05/12 02:30:00, 7.0, 6.8
2023/05/12 02:40:00, 7.8, 6.5
2023/05/12 02:50:00, 7.5, 6.3
2023/05/12 03:00:00, 8.8, 6.3
2023/05/12 03:10:00, 4.1, 6.3
2023/05/12 03:20:00, 4.3, 6.6
2023/05/12 03:30:00, 4.2, 6.3
2023/05/12 03:40:00, 5.2, 6.1
2023/05/12 03:50:00, 3.6, 5.9
2023/05/12 04:00:00, 4.4, 5.9
2023/05/12 04:10:00, 5.9, 5.7
2023/05/12 04:20:00, 3.0, 5.7
2023/05/12 04:30:00, 0.9, 5.7
2023/05/12 04:40:00, 1.4, 5.9
2023/05/12 04:50:00, 1.0, 5.6
2023/05/12 05:00:00, 0.7, 5.6
2023/05/12 05:10:00, 1.2, 5.2
2023/05/12 05:20:00, 1.4, 5.5
2023/05/12 05:30:00, 1.6, 5.4
2023/05/12 05:40:00, 0.7, 5.3
2023/05/12 05:50:00, 0.7, 5.6
2023/05/12 06:00:00, 1.0, 5.6
2023/05/12 06:10:00, 0.7, 5.7
2023/05/12 06:20:00, 0.8, 6.0
2023/05/12 06:30:00, 1.2, 6.0
2023/05/12 06:40:00, 3.0, 6.6
2023/05/12 06:50:00, 5.9, 7.4
2023/05/12 07:00:00, 6.3, 8.5
2023/05/12 07:10:00, 8.7, 8.0
2023/05/12 07:20:00,10.5, 9.6
2023/05/12 07:30:00,11.2, 9.6
2023/05/12 07:40:00, 8.9,10.8
2023/05/12 07:50:00,11.2,10.4
2023/05/12 08:00:00, 8.0,11.4
2023/05/12 08:10:00, 8.9,11.9
2023/05/12 08:20:00, 8.4,12.7
2023/05/12 08:30:00,---,13.3
2023/05/12 08:40:00, 0.0,14.1
2023/05/12 08:50:00, 0.0,15.3
2023/05/12 09:00:00, 0.0,17.3
2023/05/12 09:10:00, 0.0,19.1
2023/05/12 09:20:00, 0.0,19.1
2023/05/12 09:30:00,---,20.3
2023/05/12 09:40:00, 3.7,20.3
2023/05/12 09:50:00, 2.6,21.2
2023/05/12 10:00:00, 2.6,22.1
2023/05/12 10:10:00, 1.8,23.5
2023/05/12 10:20:00, 1.7,23.4
2023/05/12 10:30:00, 1.6,24.4
2023/05/12 10:40:00, 1.6,23.8
2023/05/12 10:50:00, 1.5,25.3
2023/05/12 11:00:00, 1.4,25.4
2023/05/12 11:10:00, 1.1,25.1
2023/05/12 11:20:00, 1.2,25.8
2023/05/12 11:30:00, 0.9,25.6
2023/05/12 11:40:00, 1.1,25.3
2023/05/12 11:50:00, 0.8,25.6
2023/05/12 12:00:00, 1.5,25.6
2023/05/12 12:10:00, 1.8,25.9
2023/05/12 12:20:00, 1.9,25.8
2023/05/12 12:30:00, 2.0,25.7
2023/05/12 12:40:00, 2.0,25.6
2023/05/12 12:50:00, 1.7,25.7
2023/05/12 13:00:00, 2.2,25.8
2023/05/12 13:10:00, 2.3,24.9
2023/05/12 13:20:00, 3.0,25.6
2023/05/12 13:30:00, 3.8,25.9
2023/05/12 13:40:00, 2.9,24.9
2023/05/12 13:50:00, 3.1,24.9
2023/05/12 14:00:00, 4.3,25.8
2023/05/12 14:10:00, 4.5,25.4
2023/05/12 14:20:00, 3.4,24.7
2023/05/12 14:30:00, 4.2,25.3
2023/05/12 14:40:00, 4.4,24.5
2023/05/12 14:50:00, 4.9,24.0
2023/05/12 15:00:00, 6.5,24.7
2023/05/12 15:10:00, 5.5,24.7
2023/05/12 15:20:00, 5.4,24.0
2023/05/12 15:30:00, 5.5,23.7
2023/05/12 15:40:00, 5.2,23.7
2023/05/12 15:50:00, 4.9,24.0
2023/05/12 16:00:00, 4.1,24.0
2023/05/12 16:10:00, 3.8,23.8
2023/05/12 16:20:00, 4.4,23.8
2023/05/12 16:30:00, 6.4,24.3
2023/05/12 16:40:00, 7.1,25.0
2023/05/12 16:50:00, 6.3,24.3
2023/05/12 17:00:00, 4.9,23.7
2023/05/12 17:10:00, 4.3,22.6
2023/05/12 17:20:00, 6.5,22.6
2023/05/12 17:30:00, 6.2,21.5
2023/05/12 17:40:00,---,20.6
2023/05/12 17:50:00, 7.3,20.1
2023/05/12 18:00:00, 8.2,19.6
2023/05/12 18:10:00, 9.3,19.1
2023/05/12 18:20:00,10.2,18.7
2023/05/12 18:30:00,11.0,18.3
2023/05/12 18:40:00,11.9,17.9
2023/05/12 18:50:00,12.3,17.4
2023/05/12 19:00:00,12.4,17.1
2023/05/12 19:10:00,12.5,16.6
2023/05/12 19:20:00,12.7,16.2
2023/05/12 19:30:00,13.1,16.0
2023/05/12 19:40:00,13.3,15.8
2023/05/12 19:50:00,13.4,15.3
2023/05/12 20:00:00,13.5,15.1
2023/05/12 20:10:00,13.4,14.5
2023/05/12 20:20:00,13.7,14.7
2023/05/12 20:30:00,13.8,14.4
2023/05/12 20:40:00,14.0,14.5
2023/05/12 20:50:00,14.2,14.2
2023/05/12 21:00:00,14.2,14.0
2023/05/12 21:10:00,14.4,13.7
2023/05/12 21:20:00,14.4,13.8
2023/05/12 21:30:00,14.5,13.7
2023/05/12 21:40:00,14.4,13.9
2023/05/12 21:50:00,14.4,13.6
2023/05/12 22:00:00,14.4,13.5
2023/05/12 22:10:00,14.2,13.4
2023/05/12 22:20:00,14.4,13.2
2023/05/12 22:30:00,14.6,13.3
2023/05/12 22:40:00,14.7,13.5
2023/05/12 22:50:00,14.7,13.4
2023/05/12 23:00:00,14.4,13.6
2023/05/12 23:10:00,14.7,13.2
2023/05/12 23:20:00,14.6,13.2
2023/05/12 23:30:00,14.2,13.1
2023/05/12 23:40:00,14.6,13.1
2023/05/12 23:50:00,14.7,13.0
